This is the latest recevied weather packets stored in our database for station/object IK1PCD-11. If no packets are shown the sender has not sent any weather packets the latest 10 day(s).
| Time | Temp. | Humidity | Pressure | Rain* | Wind** | Luminosity | Snow |
|---|---|---|---|---|---|---|---|
| 1788298755 | 14.44° C | 100% | 1022.5 hPa | - | - | - | - |
| 1788297855 | 14.44° C | 100% | 1022.7 hPa | - | - | - | - |
| 1788296955 | 14.44° C | 100% | 1022.7 hPa | - | - | - | - |
| 1788294254 | 15° C | 100% | 1022.8 hPa | - | - | - | - |
| 1788293354 | 15.56° C | 100% | 1022.7 hPa | - | - | - | - |
| 1788292457 | 15.56° C | 100% | 1022.8 hPa | - | - | - | - |
| 1788291557 | 15.56° C | 100% | 1022.8 hPa | - | - | - | - |
| 1788290657 | 15.56° C | 100% | 1022.6 hPa | - | - | - | - |
| 1788289757 | 16.11° C | 100% | 1022.4 hPa | - | - | - | - |
| 1788288857 | 16.11° C | 100% | 1022.2 hPa | - | - | - | - |
| 1788287956 | 16.67° C | 100% | 1022.1 hPa | - | - | - | - |
| 1788287056 | 17.22° C | 100% | 1022 hPa | - | - | - | - |
| 1788286156 | 17.78° C | 100% | 1021.9 hPa | - | - | - | - |
| 1788285256 | 18.89° C | 100% | 1021.8 hPa | - | - | - | - |
| 1788284356 | 19.44° C | 100% | 1021.6 hPa | - | - | - | - |
| 1788283456 | 20.56° C | 100% | 1021.7 hPa | - | - | - | - |
| 1788282556 | 20.56° C | 100% | 1021.5 hPa | - | - | - | - |
| 1788279855 | 21.11° C | 100% | 1021.5 hPa | - | - | - | - |
| 1788278955 | 21.67° C | 100% | 1021.5 hPa | - | - | - | - |
| 1788278055 | 22.22° C | 100% | 1021.4 hPa | - | - | - | - |
| 1788277155 | 22.22° C | 100% | 1021.5 hPa | - | - | - | - |
| 1788276255 | 22.22° C | 100% | 1021.5 hPa | - | - | - | - |
| 1788275355 | 22.78° C | 100% | 1021.4 hPa | - | - | - | - |
| 1788274455 | 22.78° C | 100% | 1021.3 hPa | - | - | - | - |
| 1788273555 | 23.33° C | 100% | 1021.3 hPa | - | - | - | - |
* Rain since midnight (hover to see other rain measurements)
** Current wind speed in m/s (hover to see current wind gust speed)